OK,96,24,890,96,2014-10-01T01:40:00,0,28072660,185316
OK,96,24,890,96,2014-10-01T01:45:00,0,28073107,185316
OK,96,24,890,96,2014-10-01T01:50:00,0,28073555,185316
OK,96,24,890,96,2014-10-01T01:55:00,0,28073873,185316
OK,96,24,890,96,2014-10-01T02:00:00,0,28074322,185316
OK,96,24,890,96,2014-10-01T02:05:00,0,28074763,185316
OK,96,24,890,96,2014-10-01T02:10:00,0,28075211,185316
OK,96,24,890,96,2014-10-01T02:15:00,0,28075660,185316
OK,96,24,890,96,2014-10-01T02:20:00,0,28076045,185316
OK,96,24,890,96,2014-10-01T02:25:00,0,28076492,185316
OK,96,24,890,96,2014-10-01T02:30:00,0,28076941,185316
OK,96,24,890,96,2014-10-01T02:35:00,0,28077390,185316
OK,96,24,890,96,2014-10-01T02:40:00,0,28077793,185316
OK,96,24,890,96,2014-10-01T02:45:00,0,28078242,185316
OK,72,33,890,72,2014-10-01T02:50:00,3,28078687,185316
OK,72,33,890,72,2014-10-01T02:55:00,3,28079136,185316
OK,72,33,890,72,2014-10-01T03:00:00,0,28079578,185316
OK,72,33,890,72,2014-10-01T03:05:00,0,28080027,185316
OK,72,33,890,72,2014-10-01T03:10:00,0,28080361,185316
OK,72,33,890,72,2014-10-01T03:15:00,0,28080810,185316
OK,72,33,890,72,2014-10-01T03:20:00,0,28081259,185316
OK,89,26,890,89,2014-10-01T03:25:00,1,28081706,185316
OK,89,26,890,89,2014-10-01T03:30:00,0,28082155,185316
OK,66,36,890,66,2014-10-01T03:35:00,1,28082588,185316
OK,65,36,890,65,2014-10-01T03:40:00,3,28083020,185316
OK,70,34,890,70,2014-10-01T03:45:00,2,28083469,185316
OK,49,48,890,49,2014-10-01T03:50:00,0,28083918,185316
OK,61,39,890,61,2014-10-01T03:55:00,2,28084360,185316
OK,61,39,890,61,2014-10-01T04:00:00,2,28084785,185316
OK,61,39,890,61,2014-10-01T04:05:00,0,28085233,185316
OK,69,34,890,69,2014-10-01T04:10:00,3,28085678,185316
OK,111,21,890,111,2014-10-01T04:15:00,5,28086127,185316
OK,121,19,890,121,2014-10-01T04:20:00,4,28086569,185316
OK,146,16,890,146,2014-10-01T04:25:00,1,28087018,185316
OK,96,24,890,96,2014-10-01T04:30:00,1,28087463,185316
OK,89,26,890,89,2014-10-01T04:35:00,4,28087912,185316
OK,103,23,890,103,2014-10-01T04:40:00,4,28088337,185316
OK,107,22,890,107,2014-10-01T04:45:00,7,28088785,185316
OK,79,30,890,79,2014-10-01T04:50:00,5,28089215,185316
OK,80,29,890,80,2014-10-01T04:55:00,3,28089664,185316
OK,61,39,890,61,2014-10-01T05:00:00,1,28090113,185316
OK,72,33,890,72,2014-10-01T05:05:00,2,28090476,185316
OK,84,28,890,84,2014-10-01T05:10:00,1,28090906,185316
OK,99,24,890,99,2014-10-01T05:15:00,2,28091355,185316
OK,97,24,890,97,2014-10-01T05:20:00,8,28091772,185316
OK,104,23,890,104,2014-10-01T05:25:00,14,28092221,185316
OK,120,19,890,120,2014-10-01T05:30:00,10,28092665,185316
OK,78,30,890,78,2014-10-01T05:35:00,3,28093106,185316
OK,113,21,890,113,2014-10-01T05:40:00,4,28093537,185316
OK,124,19,890,124,2014-10-01T05:45:00,10,28093986,185316
OK,125,19,890,125,2014-10-01T05:50:00,10,28094398,185316
OK,146,16,890,146,2014-10-01T05:55:00,9,28094842,185316
OK,173,13,890,173,2014-10-01T06:00:00,11,28095289,185316
OK,155,15,890,155,2014-10-01T06:05:00,11,28095738,185316
OK,133,18,890,133,2014-10-01T06:10:00,13,28096151,185316
OK,102,23,890,102,2014-10-01T06:15:00,13,28096600,185316
OK,119,20,890,119,2014-10-01T06:20:00,11,28097034,185316
OK,135,17,890,135,2014-10-01T06:25:00,10,28097483,185316
OK,92,26,890,92,2014-10-01T06:30:00,14,28097932,185316
OK,94,25,890,94,2014-10-01T06:35:00,14,28098370,185316
OK,90,26,890,90,2014-10-01T06:40:00,16,28098813,185316
OK,96,24,890,96,2014-10-01T06:45:00,14,28099261,185316
OK,103,23,890,103,2014-10-01T06:50:00,4,28099604,185316
OK,99,24,890,99,2014-10-01T06:55:00,10,28100053,185316
OK,82,29,890,82,2014-10-01T07:00:00,10,28100360,185316
OK,81,29,890,81,2014-10-01T07:05:00,6,28100809,185316
OK,82,29,890,82,2014-10-01T07:10:00,11,28101180,185316
OK,91,26,890,91,2014-10-01T07:15:00,9,28101629,185316
OK,136,17,890,136,2014-10-01T07:20:00,5,28102065,185316
OK,112,21,890,112,2014-10-01T07:25:00,4,28102514,185316
OK,59,40,890,59,2014-10-01T07:30:00,3,28102944,185316
OK,84,28,890,84,2014-10-01T07:35:00,7,28103388,185316
OK,116,20,890,116,2014-10-01T07:40:00,10,28103833,185316
OK,116,20,890,116,2014-10-01T07:45:00,9,28104278,185316
OK,115,20,890,115,2014-10-01T07:50:00,5,28104720,185316
OK,114,21,890,114,2014-10-01T07:55:00,7,28105164,185316
OK,114,21,890,114,2014-10-01T08:00:00,9,28105604,185316
OK,113,21,890,113,2014-10-01T08:05:00,7,28106053,185316
OK,104,23,890,104,2014-10-01T08:10:00,6,28106490,185316
OK,96,24,890,96,2014-10-01T08:15:00,6,28106896,185316
OK,89,26,890,89,2014-10-01T08:20:00,2,28107328,185316
OK,92,26,890,92,2014-10-01T08:25:00,0,28107777,185316
OK,105,22,890,105,2014-10-01T08:30:00,4,28108216,185316
OK,86,27,890,86,2014-10-01T08:35:00,4,28108665,185316
OK,91,26,890,91,2014-10-01T08:40:00,2,28109093,185316
OK,107,22,890,107,2014-10-01T08:45:00,6,28109542,185316
OK,132,18,890,132,2014-10-01T08:50:00,9,28109885,185316
OK,133,18,890,133,2014-10-01T08:55:00,6,28110334,185316
OK,104,23,890,104,2014-10-01T09:00:00,4,28110757,185316
OK,104,23,890,104,2014-10-01T09:05:00,4,28111206,185316
OK,56,42,890,56,2014-10-01T09:10:00,4,28111635,185316
OK,63,38,890,63,2014-10-01T09:15:00,5,28112084,185316
OK,104,23,890,104,2014-10-01T09:20:00,3,28112425,185316
OK,81,29,890,81,2014-10-01T09:25:00,8,28112874,185316
OK,98,24,890,98,2014-10-01T09:30:00,9,28113298,185316
OK,116,20,890,116,2014-10-01T09:35:00,5,28113747,185316
OK,129,18,890,129,2014-10-01T09:40:00,5,28114179,185316
OK,128,18,890,128,2014-10-01T09:45:00,8,28114628,185316
OK,95,25,890,95,2014-10-01T09:50:00,6,28114982,185316
OK,96,24,890,96,2014-10-01T09:55:00,7,28115431,185316
OK,101,23,890,101,2014-10-01T10:00:00,12,28115843,185316
OK,131,18,890,131,2014-10-01T10:05:00,9,28116292,185316
OK,143,16,890,143,2014-10-01T10:10:00,5,28116700,185316
OK,95,25,890,95,2014-10-01T10:15:00,9,28117149,185316
OK,90,26,890,90,2014-10-01T10:20:00,6,28117574,185316
OK,118,20,890,118,2014-10-01T10:25:00,7,28118023,185316
OK,129,18,890,129,2014-10-01T10:30:00,5,28118468,185316
OK,82,29,890,82,2014-10-01T10:35:00,1,28118915,185316
OK,105,22,890,105,2014-10-01T10:40:00,3,28119359,185316
OK,106,22,890,106,2014-10-01T10:45:00,4,28119807,185316
OK,105,22,890,105,2014-10-01T10:50:00,2,28120255,185316
OK,184,13,890,184,2014-10-01T10:55:00,6,28120704,185316
OK,142,16,890,142,2014-10-01T11:00:00,10,28121087,185316
OK,91,26,890,91,2014-10-01T11:05:00,6,28121536,185316
OK,84,28,890,84,2014-10-01T11:10:00,5,28121974,185316
OK,95,25,890,95,2014-10-01T11:15:00,8,28122423,185316
OK,113,21,890,113,2014-10-01T11:20:00,5,28122864,185316
OK,113,21,890,113,2014-10-01T11:25:00,1,28123313,185316
OK,84,28,890,84,2014-10-01T11:30:00,4,28123745,185316
OK,103,23,890,103,2014-10-01T11:35:00,7,28124194,185316
OK,121,19,890,121,2014-10-01T11:40:00,3,28124596,185316
OK,96,24,890,96,2014-10-01T11:45:00,2,28125045,185316
OK,79,30,890,79,2014-10-01T11:50:00,5,28125474,185316
OK,97,24,890,97,2014-10-01T11:55:00,8,28125923,185316
OK,133,18,890,133,2014-10-01T12:00:00,5,28126275,185316
OK,78,30,890,78,2014-10-01T12:05:00,6,28126724,185316
OK,86,27,890,86,2014-10-01T12:10:00,7,28127173,185316
OK,88,27,890,88,2014-10-01T12:15:00,4,28127622,185316
OK,90,26,890,90,2014-10-01T12:20:00,3,28128050,185316
OK,110,21,890,110,2014-10-01T12:25:00,4,28128499,185316
OK,76,31,890,76,2014-10-01T12:30:00,6,28128934,185316
OK,77,31,890,77,2014-10-01T12:35:00,5,28129383,185316
OK,106,22,890,106,2014-10-01T12:40:00,5,28129817,185316
OK,64,37,890,64,2014-10-01T12:45:00,3,28130266,185316
OK,78,30,890,78,2014-10-01T12:50:00,4,28130694,185316
OK,98,24,890,98,2014-10-01T12:55:00,5,28131143,185316
OK,83,28,890,83,2014-10-01T13:00:00,7,28131580,185316
OK,84,28,890,84,2014-10-01T13:05:00,7,28132029,185316
OK,90,26,890,90,2014-10-01T13:10:00,5,28132467,185316
OK,134,17,890,134,2014-10-01T13:15:00,4,28132914,185316
OK,112,21,890,112,2014-10-01T13:20:00,5,28133352,185316
OK,100,23,890,100,2014-10-01T13:25:00,3,28133801,185316
OK,145,16,890,145,2014-10-01T13:30:00,7,28134240,185316
OK,144,16,890,144,2014-10-01T13:35:00,8,28134689,185316
OK,77,31,890,77,2014-10-01T13:40:00,3,28135108,185316
OK,101,23,890,101,2014-10-01T13:45:00,4,28135557,185316
OK,101,23,890,101,2014-10-01T13:50:00,6,28135994,185316
OK,130,18,890,130,2014-10-01T13:55:00,6,28136443,185316
OK,136,17,890,136,2014-10-01T14:00:00,4,28136883,185316
OK,78,30,890,78,2014-10-01T14:05:00,3,28137332,185316
OK,110,21,890,110,2014-10-01T14:10:00,3,28137766,185316
OK,109,21,890,109,2014-10-01T14:15:00,6,28138215,185316
OK,107,22,890,107,2014-10-01T14:20:00,6,28138643,185316
OK,134,17,890,134,2014-10-01T14:25:00,8,28139092,185316
OK,128,18,890,128,2014-10-01T14:30:00,10,28139503,185316
OK,82,29,890,82,2014-10-01T14:35:00,6,28139952,185316
OK,91,26,890,91,2014-10-01T14:40:00,8,28140394,185316
OK,98,24,890,98,2014-10-01T14:45:00,9,28140843,185316
OK,91,26,890,91,2014-10-01T14:50:00,5,28141269,185316
OK,84,28,890,84,2014-10-01T14:55:00,5,28141718,185316
OK,109,21,890,109,2014-10-01T15:00:00,4,28142146,185316
OK,134,17,890,134,2014-10-01T15:05:00,2,28142595,185316
OK,88,27,890,88,2014-10-01T15:10:00,6,28143022,185316
OK,71,33,890,71,2014-10-01T15:15:00,12,28143471,185316
OK,66,36,890,66,2014-10-01T15:20:00,11,28143919,185316
OK,78,30,890,78,2014-10-01T15:25:00,5,28144368,185316
OK,69,34,890,69,2014-10-01T15:30:00,1,28144790,185316
OK,94,25,890,94,2014-10-01T15:35:00,2,28145203,185316
OK,119,20,890,119,2014-10-01T15:40:00,3,28145652,185316
OK,109,21,890,109,2014-10-01T15:45:00,3,28146101,185316
OK,85,28,890,85,2014-10-01T15:50:00,3,28146550,185316
OK,85,28,890,85,2014-10-01T15:55:00,2,28146959,185316
OK,117,20,890,117,2014-10-01T16:00:00,2,28147402,185316
OK,115,20,890,115,2014-10-01T16:05:00,2,28147851,185316
OK,54,44,890,54,2014-10-01T16:10:00,3,28148252,185316
OK,54,44,890,54,2014-10-01T16:15:00,3,28148701,185316
OK,66,36,890,66,2014-10-01T16:20:00,5,28149140,185316
OK,89,26,890,89,2014-10-01T16:25:00,4,28149589,185316
OK,92,26,890,92,2014-10-01T16:30:00,2,28150015,185316
OK,59,40,890,59,2014-10-01T16:35:00,3,28150464,185316
OK,84,28,890,84,2014-10-01T16:40:00,6,28150882,185316
OK,110,21,890,110,2014-10-01T16:45:00,3,28151331,185316
OK,110,21,890,110,2014-10-01T16:50:00,0,28151780,185316
OK,108,22,890,108,2014-10-01T17:00:00,1,28152229,185316
OK,69,34,890,69,2014-10-01T17:05:00,1,28152675,185316
OK,85,28,890,85,2014-10-01T17:10:00,2,28153122,185316
OK,101,23,890,101,2014-10-01T17:15:00,3,28153571,185316
OK,107,22,890,107,2014-10-01T17:20:00,2,28153981,185316
OK,143,16,890,143,2014-10-01T17:25:00,0,28154430,185316
OK,143,16,890,143,2014-10-01T17:30:00,0,28154872,185316
OK,48,49,890,48,2014-10-01T17:35:00,1,28155320,185316
OK,48,49,890,48,2014-10-01T17:40:00,1,28155738,185316
OK,48,49,890,48,2014-10-01T17:45:00,0,28156187,185316
OK,48,49,890,48,2014-10-01T17:50:00,0,28156636,185316
OK,125,19,890,125,2014-10-01T17:55:00,2,28157074,185316
OK,125,19,890,125,2014-10-01T18:00:00,2,28157504,185316
OK,88,27,890,88,2014-10-01T18:05:00,1,28157952,185316
OK,88,27,890,88,2014-10-01T18:10:00,1,28158396,185316
OK,88,27,890,88,2014-10-01T18:15:00,0,28158842,185316
OK,64,37,890,64,2014-10-01T18:20:00,2,28159288,185316
OK,74,32,890,74,2014-10-01T18:25:00,1,28159623,185316
OK,74,32,890,74,2014-10-01T18:30:00,1,28160072,185316
OK,62,38,890,62,2014-10-01T18:35:00,2,28160521,185316
OK,84,28,890,84,2014-10-01T18:40:00,3,28160959,185316
OK,109,21,890,109,2014-10-01T18:45:00,0,28161408,185316
OK,116,20,890,116,2014-10-01T18:50:00,1,28161825,185316
OK,81,29,890,81,2014-10-01T18:55:00,3,28162274,185316
OK,81,29,890,81,2014-10-01T19:00:00,3,28162669,185316
OK,146,16,890,146,2014-10-01T19:05:00,1,28163107,185316
OK,146,16,890,146,2014-10-01T19:10:00,0,28163555,185316
OK,146,16,890,146,2014-10-01T19:15:00,0,28164004,185316
OK,64,37,890,64,2014-10-01T19:20:00,2,28164435,185316
OK,64,37,890,64,2014-10-01T19:25:00,2,28164884,185316
OK,64,37,890,64,2014-10-01T19:30:00,0,28165309,185316
OK,64,37,890,64,2014-10-01T19:35:00,0,28165757,185316
OK,103,23,890,103,2014-10-01T19:40:00,1,28166198,185316
OK,122,19,890,122,2014-10-01T19:45:00,2,28166560,185316
OK,141,16,890,141,2014-10-01T19:50:00,1,28167009,185316
OK,105,22,890,105,2014-10-01T19:55:00,1,28167438,185316
OK,72,33,890,72,2014-10-01T20:00:00,2,28167872,185316
OK,40,59,890,40,2014-10-01T20:05:00,1,28168320,185316
OK,40,59,890,40,2014-10-01T20:10:00,0,28168765,185316
OK,40,59,890,40,2014-10-01T20:15:00,0,28169214,185316
OK,40,59,890,40,2014-10-01T20:20:00,0,28169662,185316
OK,40,59,890,40,2014-10-01T20:25:00,0,28170088,185316
OK,40,59,890,40,2014-10-01T20:30:00,0,28170533,185316
OK,40,59,890,40,2014-10-01T20:35:00,0,28170981,185316
OK,40,59,890,40,2014-10-01T20:40:00,0,28171418,185316
OK,40,59,890,40,2014-10-01T20:45:00,0,28171864,185316
OK,40,59,890,40,2014-10-01T20:50:00,0,28172312,185316
OK,40,59,890,40,2014-10-01T20:55:00,0,28172758,185316
OK,40,59,890,40,2014-10-01T21:00:00,0,28173204,185316
OK,40,59,890,40,2014-10-01T21:05:00,0,28173653,185316
OK,40,59,890,40,2014-10-01T21:10:00,0,28174094,185316
OK,67,35,890,67,2014-10-01T21:15:00,1,28174543,185316
OK,67,35,890,67,2014-10-01T21:20:00,1,28174969,185316
OK,67,35,890,67,2014-10-01T21:25:00,0,28175365,185316
OK,67,35,890,67,2014-10-01T21:30:00,0,28175814,185316
OK,67,35,890,67,2014-10-01T21:35:00,0,28176263,185316
OK,67,35,890,67,2014-10-01T21:40:00,0,28176712,185316
OK,67,35,890,67,2014-10-01T21:45:00,0,28177069,185316
OK,67,35,890,67,2014-10-01T21:50:00,0,28177508,185316
OK,67,35,890,67,2014-10-01T21:55:00,0,28177954,185316
OK,67,35,890,67,2014-10-01T22:00:00,0,28178403,185316
OK,67,35,890,67,2014-10-01T22:05:00,0,28178850,185316
OK,79,30,890,79,2014-10-01T22:10:00,1,28179284,185316
OK,79,30,890,79,2014-10-01T22:15:00,0,28179727,185316
OK,79,30,890,79,2014-10-01T22:20:00,0,28180174,185316
OK,79,30,890,79,2014-10-01T22:25:00,0,28180572,185316
OK,54,44,890,54,2014-10-01T22:30:00,2,28181021,185316
OK,54,44,890,54,2014-10-01T22:35:00,0,28181445,185316
OK,54,44,890,54,2014-10-01T22:40:00,0,28181893,185316
OK,54,44,890,54,2014-10-01T22:45:00,0,28182340,185316
OK,54,44,890,54,2014-10-01T22:50:00,0,28182789,185316
OK,54,44,890,54,2014-10-01T22:55:00,0,28183206,185316
OK,54,44,890,54,2014-10-01T23:00:00,0,28183639,185316
OK,91,26,890,91,2014-10-01T23:05:00,1,28184084,185316
OK,91,26,890,91,2014-10-01T23:10:00,0,28184533,185316
OK,91,26,890,91,2014-10-01T23:15:00,0,28184968,185316
OK,91,26,890,91,2014-10-01T23:20:00,0,28185416,185316
OK,91,26,890,91,2014-10-01T23:25:00,0,28185847,185316
OK,91,26,890,91,2014-10-01T23:30:00,0,28186239,185316
OK,91,26,890,91,2014-10-01T23:40:00,0,28187086,185316
OK,91,26,890,91,2014-10-01T23:55:00,0,28188418,185316
OK,91,26,890,91,2014-10-02T00:00:00,0,28188854,185316
OK,91,26,890,91,2014-10-02T00:05:00,0,28189303,185316
OK,91,26,890,91,2014-10-02T00:10:00,0,28189725,185316
OK,91,26,890,91,2014-10-02T00:15:00,0,28190174,185316
OK,91,26,890,91,2014-10-02T00:20:00,0,28190527,185316
OK,91,26,890,91,2014-10-02T00:25:00,0,28190976,185316
OK,91,26,890,91,2014-10-02T00:30:00,0,28191425,185316
OK,91,26,890,91,2014-10-02T00:35:00,0,28191731,185316
OK,91,26,890,91,2014-10-02T00:40:00,0,28192180,185316
OK,91,26,890,91,2014-10-02T00:45:00,0,28192613,185316
OK,91,26,890,91,2014-10-02T00:50:00,0,28193057,185316
OK,91,26,890,91,2014-10-02T00:55:00,0,28193424,185316
OK,91,26,890,91,2014-10-02T01:05:00,0,28194322,185316
OK,91,26,890,91,2014-10-02T01:10:00,0,28194771,185316
OK,91,26,890,91,2014-10-02T01:15:00,0,28195022,185316
OK,91,26,890,91,2014-10-02T01:20:00,0,28195456,185316
OK,91,26,890,91,2014-10-02T01:30:00,0,28195905,185316
OK,91,26,890,91,2014-10-02T01:35:00,0,28196638,185316
OK,91,26,890,91,2014-10-02T01:40:00,0,28197061,185316
OK,91,26,890,91,2014-10-02T01:45:00,0,28197510,185316
OK,91,26,890,91,2014-10-02T01:50:00,0,28197958,185316
OK,91,26,890,91,2014-10-02T01:55:00,0,28198406,185316
OK,91,26,890,91,2014-10-02T02:00:00,0,28198855,185316
OK,91,26,890,91,2014-10-02T02:05:00,0,28199229,185316
OK,91,26,890,91,2014-10-02T02:10:00,0,28199669,185316
OK,82,29,890,82,2014-10-02T02:15:00,0,28200111,185316
OK,82,29,890,82,2014-10-02T02:20:00,0,28200554,185316
OK,82,29,890,82,2014-10-02T02:25:00,0,28201003,185316
OK,82,29,890,82,2014-10-02T02:30:00,0,28201434,185316
OK,82,29,890,82,2014-10-02T02:45:00,0,28202332,185316
OK,153,15,890,153,2014-10-02T02:50:00,1,28202774,185316
OK,153,15,890,153,2014-10-02T02:55:00,0,28203222,185316
OK,51,46,890,51,2014-10-02T03:00:00,1,28203657,185316
OK,51,46,890,51,2014-10-02T03:10:00,0,28204106,185316
OK,51,46,890,51,2014-10-02T03:25:00,0,28204555,185316
OK,51,46,890,51,2014-10-02T03:30:00,0,28205004,185316
OK,97,24,890,97,2014-10-02T03:35:00,2,28205432,185316
OK,107,22,890,107,2014-10-02T03:40:00,0,28205879,185316
OK,144,16,890,144,2014-10-02T03:45:00,1,28206262,185316
OK,144,16,890,144,2014-10-02T03:55:00,0,28207160,185316
OK,61,39,890,61,2014-10-02T04:00:00,2,28207580,185316
OK,61,39,890,61,2014-10-02T04:05:00,0,28208028,185316
OK,118,20,890,118,2014-10-02T04:10:00,1,28208455,185316
OK,118,20,890,118,2014-10-02T04:15:00,1,28208904,185316
OK,118,20,890,118,2014-10-02T04:20:00,0,28209342,185316
OK,118,20,890,118,2014-10-02T04:25:00,0,28209791,185316
OK,153,15,890,153,2014-10-02T04:30:00,1,28210214,185316
OK,153,15,890,153,2014-10-02T04:35:00,0,28210663,185316
OK,142,16,890,142,2014-10-02T04:40:00,1,28211088,185316
OK,142,16,890,142,2014-10-02T04:45:00,0,28211532,185316
OK,142,16,890,142,2014-10-02T04:50:00,0,28211910,185316
OK,93,25,890,93,2014-10-02T04:55:00,1,28212359,185316
OK,93,25,890,93,2014-10-02T05:00:00,1,28212788,185316
OK,65,36,890,65,2014-10-02T05:05:00,2,28213237,185316
OK,65,36,890,65,2014-10-02T05:10:00,0,28213675,185316
OK,108,22,890,108,2014-10-02T05:15:00,3,28214124,185316
OK,108,22,890,108,2014-10-02T05:20:00,3,28214537,185316
OK,55,43,890,55,2014-10-02T05:25:00,1,28214986,185316
OK,55,43,890,55,2014-10-02T05:30:00,0,28215402,185316
OK,55,43,890,55,2014-10-02T05:35:00,0,28215851,185316
OK,102,23,890,102,2014-10-02T05:40:00,3,28216206,185316
OK,84,28,890,84,2014-10-02T05:45:00,1,28216630,185316
OK,84,28,890,84,2014-10-02T05:50:00,0,28217077,185316
OK,143,16,890,143,2014-10-02T05:55:00,5,28217526,185316
OK,118,20,890,118,2014-10-02T06:00:00,5,28217965,185316
OK,124,19,890,124,2014-10-02T06:05:00,5,28218414,185316
OK,124,19,890,124,2014-10-02T06:10:00,2,28218834,185316
OK,107,22,890,107,2014-10-02T06:15:00,4,28219283,185316
OK,133,18,890,133,2014-10-02T06:20:00,7,28219656,185316
OK,102,23,890,102,2014-10-02T06:25:00,10,28220105,185316
OK,72,33,890,72,2014-10-02T06:30:00,11,28220539,185316
OK,110,21,890,110,2014-10-02T06:35:00,11,28220988,185316
OK,107,22,890,107,2014-10-02T06:40:00,13,28221371,185316
OK,110,21,890,110,2014-10-02T06:45:00,8,28221655,185316
OK,99,24,890,99,2014-10-02T07:00:00,8,28222249,185316
OK,99,24,890,99,2014-10-02T07:05:00,7,28222698,185316
OK,102,23,890,102,2014-10-02T07:10:00,3,28223129,185316
OK,102,23,890,102,2014-10-02T07:15:00,1,28223565,185316
OK,102,23,890,102,2014-10-02T07:20:00,0,28224012,185316
OK,94,25,890,94,2014-10-02T07:25:00,3,28224367,185316
OK,61,39,890,61,2014-10-02T07:30:00,0,28224816,185316
OK,77,31,890,77,2014-10-02T07:35:00,16,28225265,185316
OK,96,24,890,96,2014-10-02T07:40:00,4,28225587,185316
OK,91,26,890,91,2014-10-02T07:50:00,4,28226477,185316
OK,65,36,890,65,2014-10-02T07:55:00,3,28226926,185316
OK,106,22,890,106,2014-10-02T08:00:00,1,28227341,185316
OK,156,15,890,156,2014-10-02T08:05:00,4,28227790,185316
OK,124,19,890,124,2014-10-02T08:10:00,3,28228149,185316
OK,125,19,890,125,2014-10-02T08:15:00,2,28228598,185316
OK,175,13,890,175,2014-10-02T08:20:00,0,28229008,185316
OK,71,33,890,71,2014-10-02T08:25:00,2,28229457,185316
OK,71,33,890,71,2014-10-02T08:30:00,2,28229807,185316
OK,84,28,890,84,2014-10-02T08:35:00,4,28230256,185316
OK,98,24,890,98,2014-10-02T08:40:00,0,28230623,185316
OK,98,24,890,98,2014-10-02T08:45:00,0,28231071,185316
OK,80,29,890,80,2014-10-02T08:50:00,5,28231494,185316
OK,127,18,890,127,2014-10-02T08:55:00,1,28231943,185316
OK,67,35,890,67,2014-10-02T09:00:00,5,28232285,185316
OK,103,23,890,103,2014-10-02T09:10:00,0,28232734,185316
OK,90,26,890,90,2014-10-02T09:15:00,0,28233183,185316
OK,90,26,890,90,2014-10-02T09:20:00,0,28233607,185316
OK,89,26,890,89,2014-10-02T09:25:00,5,28234056,185316
OK,98,24,890,98,2014-10-02T09:30:00,4,28234389,185316
OK,47,50,890,47,2014-10-02T09:35:00,1,28234838,185316
OK,47,50,890,47,2014-10-02T09:40:00,0,28235265,185316
OK,87,27,890,87,2014-10-02T09:45:00,5,28235714,185316
OK,87,27,890,87,2014-10-02T09:50:00,1,28236157,185316
OK,122,19,890,122,2014-10-02T09:55:00,3,28236604,185316
OK,85,28,890,85,2014-10-02T10:00:00,2,28237007,185316
OK,85,28,890,85,2014-10-02T10:05:00,0,28237455,185316
OK,123,19,890,123,2014-10-02T10:10:00,6,28237903,185316
OK,109,21,890,109,2014-10-02T10:15:00,10,28238350,185316
OK,89,26,890,89,2014-10-02T10:20:00,13,28238791,185316
OK,89,26,890,89,2014-10-02T10:25:00,5,28239240,185316
OK,89,26,890,89,2014-10-02T10:30:00,0,28239670,185316
OK,81,29,890,81,2014-10-02T10:35:00,2,28240119,185316
OK,139,17,890,139,2014-10-02T10:40:00,2,28240563,185316
OK,69,34,890,69,2014-10-02T10:45:00,4,28241012,185316
OK,47,50,890,47,2014-10-02T10:50:00,1,28241444,185316
OK,105,22,890,105,2014-10-02T10:55:00,4,28241892,185316
OK,106,22,890,106,2014-10-02T11:00:00,0,28242288,185316
OK,106,22,890,106,2014-10-02T11:05:00,0,28242737,185316
OK,100,23,890,100,2014-10-02T11:15:00,6,28243186,185316
OK,95,25,890,95,2014-10-02T11:20:00,4,28243949,185316
OK,119,20,890,119,2014-10-02T11:25:00,2,28244378,185316
OK,87,27,890,87,2014-10-02T11:30:00,0,28244827,185316
OK,97,24,890,97,2014-10-02T11:35:00,2,28245276,185316
OK,65,36,890,65,2014-10-02T11:40:00,0,28245682,185316
OK,65,36,890,65,2014-10-02T11:45:00,0,28246131,185316
OK,98,24,890,98,2014-10-02T11:50:00,5,28246568,185316
OK,107,22,890,107,2014-10-02T11:55:00,6,28247017,185316
OK,127,18,890,127,2014-10-02T12:00:00,4,28247463,185316
OK,128,18,890,128,2014-10-02T12:05:00,2,28247893,185316
OK,121,19,890,121,2014-10-02T12:10:00,0,28248342,185316
OK,98,24,890,98,2014-10-02T12:15:00,7,28248789,185316
OK,65,36,890,65,2014-10-02T12:20:00,1,28249217,185316
OK,104,23,890,104,2014-10-02T12:25:00,4,28249661,185316
OK,115,20,890,115,2014-10-02T12:30:00,1,28250080,185316
OK,81,29,890,81,2014-10-02T12:35:00,1,28250478,185316
OK,91,26,890,91,2014-10-02T12:45:00,7,28251258,185316
OK,114,21,890,114,2014-10-02T13:20:00,1,28251803,185316
OK,104,23,890,104,2014-10-02T13:30:00,6,28252387,185316
OK,108,22,890,108,2014-10-02T13:35:00,4,28252829,185316
OK,128,18,890,128,2014-10-02T13:40:00,0,28253246,185316
OK,97,24,890,97,2014-10-02T13:45:00,8,28253695,185316
OK,138,17,890,138,2014-10-02T13:50:00,3,28254100,185316
OK,106,22,890,106,2014-10-02T13:55:00,7,28254421,185316
OK,57,42,890,57,2014-10-02T14:10:00,4,28254998,185316
OK,85,28,890,85,2014-10-02T14:15:00,6,28255447,185316
OK,94,25,890,94,2014-10-02T14:20:00,4,28255875,185316
OK,97,24,890,97,2014-10-02T14:25:00,0,28256324,185316
OK,119,20,890,119,2014-10-02T14:30:00,7,28256752,185316
OK,117,20,890,117,2014-10-02T14:35:00,5,28257201,185316
OK,75,31,890,75,2014-10-02T14:40:00,1,28257642,185316
OK,76,31,890,76,2014-10-02T14:45:00,4,28258090,185316
OK,107,22,890,107,2014-10-02T14:50:00,4,28258523,185316
OK,77,31,890,77,2014-10-02T14:55:00,3,28258969,185316
OK,86,27,890,86,2014-10-02T15:00:00,4,28259418,185316
OK,76,31,890,76,2014-10-02T15:05:00,4,28259865,185316
OK,123,19,890,123,2014-10-02T15:10:00,9,28260298,185316
OK,127,18,890,127,2014-10-02T15:15:00,8,28260747,185316
OK,85,28,890,85,2014-10-02T15:20:00,1,28261187,185316
OK,73,32,890,73,2014-10-02T15:25:00,4,28261569,185316
OK,73,32,890,73,2014-10-02T15:30:00,2,28261999,185316
OK,232,10,890,232,2014-10-02T15:40:00,1,28262892,185316
OK,135,17,890,135,2014-10-02T15:45:00,1,28263330,185316